Regional Weather Roundup
Issued by NWS

Home | Current Version | Previous Version | Graphics & Text | Print | Product List | Glossary On
Versions: 1 2 3 4 5 6 7 8 9 10 11 12 13 14 15 16 17 18 19 20 21 22 23 24 25 26 27 28 29 30 31 32 33 34 35 36 37 38 39 40 41 42 43 44 45 46 47 48 49 50
000
ASUS43 KMKX 220000
RWRWI

WISCONSIN REGIONAL WEATHER ROUNDUP
NATIONAL WEATHER SERVICE MILWAUKEE/SULLIVAN WI
600 PM CST FRI NOV 21 2014

NOTE: "FAIR" INDICATES FEW OR NO CLOUDS BELOW 12,000 FEET WITH NO
SIGNIFICANT WEATHER AND/OR OBSTRUCTIONS TO VISIBILITY.

WIZ001-002-006>008-014>016-023>028-220100-
NORTHWEST WISCONSIN

CITY           SKY/WX    TMP DP  RH WIND       PRES   REMARKS
SUPERIOR ARPT  CLOUDY    28  18  65 SW18G24   29.90F WCI  15
ASHLAND        MOCLDY    26  12  55 SW16      29.91F WCI  14
6HR MIN TEMP:  21; 6HR MAX TEMP:  28;

HAYWARD        MOCLDY    24  12  60 S20G30    29.95F WCI  10
SIREN          PTCLDY    27  17  64 S8        29.96F WCI  19
CUMBERLAND     PTCLDY    23  12  63 S12       29.98F WCI  12
RICE LAKE      PTCLDY    22  11  62 SE9       30.02S WCI  12
CHETEK         PTCLDY    22  10  60 SE8       30.02F WCI  13
LADYSMITH      FAIR      23   8  51 S9        30.03F WCI  13
EAU CLAIRE     NOT AVBL
MENOMONIE      PTCLDY    26  13  59 SE7       30.04F WCI  18
NEW RICHMOND   PTCLDY    26  17  68 S14       29.99F WCI  14
OSCEOLA        PTCLDY    27  19  70 S14       30.00F WCI  16
$$

WIZ003>005-009-010-017-018-220100-
NORTH CENTRAL WISCONSIN

CITY           SKY/WX    TMP DP  RH WIND       PRES   REMARKS
MANITOWISH WTR MOCLDY    21   5  49 S13G21    29.96F WCI   9
ARBOR VITAE    MOCLDY    22   6  51 S14G20    29.98F WCI   9
WOODRUFF       MOCLDY    22   6  51 S14G20    29.98F WCI   9
RHINELANDER    PTCLDY    21   4  47 S15G22    30.01F WCI   8
6HR MIN TEMP:  16; 6HR MAX TEMP:  22;

EAGLE RIVER    PTCLDY    20   4  49 S6        29.99F WCI  13
LAND O LAKES   PTCLDY    21   6  51 S9        29.97F WCI  11
PHILLIPS       PTCLDY    21   5  50 S12       29.99F WCI   9
TOMAHAWK       PTCLDY    21   7  56 S3        30.04F
MEDFORD        PTCLDY    21   8  57 S14       30.05F WCI   8
MERRILL        PTCLDY    23   7  48 S7        30.07F WCI  15
$$

WIZ029-030-035-036-043>047-220100-
CENTRAL WISCONSIN

CITY           SKY/WX    TMP DP  RH WIND       PRES   REMARKS
WAUSAU         CLEAR     25   6  44 S12       30.07F WCI  14
6HR MIN TEMP:  18; 6HR MAX TEMP:  26;

MOSINEE        CLEAR     23   9  54 S12       30.10F WCI  12
MARSHFIELD     CLEAR     24   8  50 S13       30.08F WCI  12
6HR MIN TEMP:  21; 6HR MAX TEMP:  26;

STEVENS POINT  CLEAR     23   7  48 S9        30.13F WCI  13
WAUPACA        PTCLDY    28   9  44 S8        30.17F WCI  20
WAUTOMA        NOT AVBL
WISC RAPIDS    CLEAR     26   5  40 S12       30.14F WCI  16
6HR MIN TEMP:  22; 6HR MAX TEMP:  28;

CAMP DOUGLAS   CLOUDY    27   9  46 S10G18    30.14F WCI  18
6HR MIN TEMP:  25; 6HR MAX TEMP:  30;

$$

WIZ011>013-019>022-031-037>040-048>050-220100-
NORTHEAST WISCONSIN

CITY           SKY/WX    TMP DP  RH WIND       PRES   REMARKS
ANTIGO         MOCLDY    21   7  55 S14       30.08S WCI   8
SHAWANO        PTCLDY    28  10  45 SW6       30.16F WCI  22
OCONTO         MOCLDY    27   7  42 S8        30.17F WCI  19
STURGEON BAY   MOCLDY    28   9  43 S15       30.16F WCI  17
6HR MIN TEMP:  21; 6HR MAX TEMP:  28;

GREEN BAY      MOCLDY    29  11  47 S15       30.17F WCI  18
6HR MIN TEMP:  22; 6HR MAX TEMP:  29;

MANITOWOC      NOT AVBL
APPLETON       MOCLDY    27   9  46 SW13      30.18F WCI  16
CLINTONVILLE   MOCLDY    28  12  50 S12G18    30.15F WCI  18
OSHKOSH        PTCLDY    26  10  50 S13       30.19F WCI  15
6HR MIN TEMP:  24; 6HR MAX TEMP:  29;

$$

WIZ032>034-041-042-053>061-220100-
SOUTHWEST WISCONSIN

CITY           SKY/WX    TMP DP  RH WIND       PRES   REMARKS
LA CROSSE      CLOUDY    30  14  51 S13       30.13F WCI  20
6HR MIN TEMP:  25; 6HR MAX TEMP:  31;

SPARTA         MOCLDY    28  10  45 S10       30.14F WCI  19
VIROQUA        CLOUDY    27  12  53 S14G20    30.13S WCI  15
BOSCOBEL       MOCLDY    31  11  43 S7        30.19F WCI  24
6HR MIN TEMP:  27; 6HR MAX TEMP:  32;

PRAIRIE DU CHI PTCLDY    31  10  41 E3        30.19S
PLATTEVILLE    PTCLDY    27  11  51 CALM      30.20F
$$

WIZ056-057-062-063-064-067-068-220100-
SOUTH CENTRAL WISCONSIN

CITY           SKY/WX    TMP DP  RH WIND       PRES   REMARKS
REEDSBURG      CLEAR     27   9  46 S5        30.17F WCI  21
BARABOO/DELLS  CLEAR     25   9  50 S9        30.17F WCI  16
LONE ROCK      NOT AVBL
MINERAL POINT  PTCLDY    30  10  43 S10       30.17F WCI  21
MADISON        MOCLDY    28   8  43 S10       30.21F WCI  19
6HR MIN TEMP:  25; 6HR MAX TEMP:  30;

MIDDLETON      CLEAR     29   6  37 S9        30.21F WCI  21
WATERTOWN      CLEAR     26   8  47 S8        30.23F WCI  17
MONROE         CLEAR     28  10  47 S10       30.21F WCI  19
JANESVILLE     CLEAR     28   5  37 S9        30.24F WCI  20
$$

WIZ051-052-058>065-066-070>072-220100-
SOUTHEAST WISCONSIN

CITY           SKY/WX    TMP DP  RH WIND       PRES   REMARKS
MILWAUKEE      PTCLDY    28   3  34 S7        30.26F WCI  21
6HR MIN TEMP:  27; 6HR MAX TEMP:  32;

WAUKESHA       CLEAR     25   3  39 S5        30.25F WCI  19
MILWAUKEE/TIMM CLEAR     28   1  31 S8        30.26F WCI  20
RACINE         CLEAR     28   3  34 S7        30.29F WCI  21
6HR MIN TEMP:  27; 6HR MAX TEMP:  32;

BURLINGTON     CLEAR     24   4  42 S6        30.26F WCI  17
KENOSHA        CLEAR     25   4  40 S7        30.27F WCI  17
6HR MIN TEMP:  25; 6HR MAX TEMP:  33;

FOND DU LAC    PTCLDY    27   9  46 S14       30.20F WCI  16
6HR MIN TEMP:  24; 6HR MAX TEMP:  30;

SHEBOYGAN      MOCLDY    29   8  41 S14       30.22F WCI  18
6HR MIN TEMP:  26; 6HR MAX TEMP:  32;

WEST BEND      FAIR      27   3  36 S6        30.23F WCI  20
JUNEAU         CLEAR     25   8  49 S12       30.23F WCI  14
$$

LSZ147-162-220100-
LAKE SUPERIOR

STATION/POSITION TIME  TEMP    WIND        PRES    WAVE
                       AIR SEA DIR/SP/G            HT/PER
                 (UTC) (F)     (DEG/KT/KT) (MB)    (FT/S)
DEVILS ISLAND    2300   33     220/ 19/ 24 1012.6F
PORT WING        2300   28     200/ 11/ 26 1012.9F
SAXON HARBOR     2300   30     190/ 12/ 22 1012.5F
$$

LMZ867-665-643>646-220100-
LAKE MICHIGAN

STATION/POSITION TIME  TEMP    WIND        PRES    WAVE
                       AIR SEA DIR/SP/G            HT/PER
                 (UTC) (F)     (DEG/KT/KT) (MB)    (FT/S)
CHAMBERS ISLAND  2300   29     170/  9/ 18 1021.7F
N MID LAKE BUOY  2250   33 42  210/ 27/ 33 1022.6F   8/ 6
NORTHPORT PIER   2311   27     180/  4/ 13 1021.3F
SISTER BAY       2243          210/ 15/ 19   N/A
KEWAUNEE LAKESHO 2300   29     200/ 12/ 16 1022.2F
SHEBOYGAN LAKESH 2300   31 35  200/ 17/ 20 1025.4F
PORT WASHINGTON  2300   31     210/  9/ 13 1025.4F
ATWATER BUOY     2300   33     200/ 16/ 17 1026.2S
MILWAUKEE LAKESH 2300   31     190/ 11/ 13   N/A
S MID LAKE BUOY  2250   35 43  180/ 21/ 25 1027.3F   4/ 5
KENOSHA   LAKESH 2300   32     200/  9/ 12 1025.7F
$$

TC  - TEMPERATURE IN CELSIUS
VSB - VISIBILITY IN STATUTE MILES
WCI - WIND CHILL INDEX
HX  - HEAT INDEX




USA.gov is the U.S. government's official web portal to all federal, state and local government web resources and services.